Location: Staunton
(38.1490°N, 79.0720°W)
Time: 00:51:47
(UTC-05:00)

ISS - Pass Details

Date: 19 January 2021
Orbit: 418 x 421 km, 51.6° (Epoch: 23 January)

Event Time Altitude Azimuth Distance (km) Brightness Sun altitude
Rises 18:00:30 0° 215° (SW) 2,352 1.1 -7.3°
Reaches altitude 10° 18:02:38 10° 209° (SSW) 1,492 -0.2 -7.7°
Maximum altitude 18:05:50 44° 136° (SE) 592 -3.2 -8.3°
Enters shadow 18:08:46 12° 64° (ENE) 1,384 -1.8 -8.8°
